Location: Bernay
(48.6766°N, 2.9386°E)
Time: 22:10:52
(UTC+00:00)

NOSS 3-4 (C) - Pass Details

Date: 12 January 2026
Orbit: 773 x 1438 km, 63.4° (Epoch: 26 December)

Event Time Altitude Azimuth Distance (km) Brightness Sun altitude
Rises 19:21:38 0° 234° (SW) 3,251 7.0 -29.9°
Reaches altitude 10° 19:23:59 10° 239° (WSW) 2,351 6.2 -30.3°
Enters shadow 19:29:03 58° 309° (NW) 975 3.6 -31.1°
